Hourly Data Report for October 25, 2015

All times are specified in Local Standard Time (LST). Add 1 hour to adjust for Daylight Saving Time where and when it is observed.

OTTAWA INTL A
ONTARIO

45°19'00.000" N
75°40'00.000" W
114.90 m
6106001
71628
YOW

Download Data

Hourly Data (October 2015)
Hourly Data Report for October 25, 2015
Temp Definition
°C
Dew Point Temp Definition
°C
Rel Hum Definition
%
Wind Dir Definition
10's deg

Wind Spd Definition
km/h
Visibility Definition
km
Stn Press Definition
kPa
Hmdx Definition


Wind Chill Definition


Weather Definition


TIME
00:00 Legend Double Dagger 7.8 7.1 95 17 17 24.1 99.48     LegendNANA
01:00 Legend Double Dagger 8.2 7.5 95 17 18 16.1 99.39     Rain
02:00 Legend Double Dagger 8.8 8.2 96 18 19 16.1 99.34     LegendNANA
03:00 Legend Double Dagger 10.7 9.9 95 20 30 12.9 99.25     Rain
04:00 Legend Double Dagger 11.3 10.7 96 21 33 16.1 99.26     Rain
05:00 Legend Double Dagger 11.5 10.7 95 22 23 16.1 99.39     LegendNANA
06:00 Legend Double Dagger 11.3 8.5 83 28 36 24.1 99.55     LegendNANA
07:00 Legend Double Dagger 9.2 6.7 84 28 38 24.1 99.72     Mostly Cloudy
08:00 Legend Double Dagger 8.3 5.4 82 28 32 24.1 99.97     LegendNANA
09:00 Legend Double Dagger 7.6 4.7 82 29 28 24.1 100.15     LegendNANA
10:00 Legend Double Dagger 7.7 3.6 75 30 35 24.1 100.29     Cloudy
11:00 Legend Double Dagger 8.0 2.5 68 31 30 24.1 100.43     LegendNANA
12:00 Legend Double Dagger 8.4 2.4 66 30 30 24.1 100.49     LegendNANA
13:00 Legend Double Dagger 10.1 2.0 57 28 27 24.1 100.52     Mostly Cloudy
14:00 Legend Double Dagger 10.2 0.3 50 30 25 24.1 100.63     LegendNANA
15:00 Legend Double Dagger 8.7 0.4 56 28 16 24.1 100.71     LegendNANA
16:00 Legend Double Dagger 8.9 0.6 56 28 23 24.1 100.77     Mainly Clear
17:00 Legend Double Dagger 7.1 0.6 63 29 14 24.1 100.82     LegendNANA
18:00 Legend Double Dagger 6.6 0.7 66 30 14 24.1 100.92     LegendNANA
19:00 Legend Double Dagger 6.7 1.6 70 30 15 24.1 101.06     Rain
20:00 Legend Double Dagger 6.2 1.0 69 31 16 24.1 101.16     LegendNANA
21:00 Legend Double Dagger 5.8 0.2 67 34 17 24.1 101.27     LegendNANA
22:00 Legend Double Dagger 4.9 0.1 71 34 21 24.1 101.32     Rain
23:00 Legend Double Dagger 3.4 -0.6 75 32 21 24.1 101.35     LegendNANA

Notes on Data Quality.

Legend

  • E = Estimated
  • M = Missing
  • NA = Not Available
  • ‡ = Partner data that is not subject to review by the National Climate Archives
Date modified: